Notices

What's New in latest Release from April 7th, 2021:

- Updated Glossary, including Speed of Maximum Gust, and Total Hourly Precipitation

- Updated national and regional climate services offices contacts and prices information

- Addition of station inventory lists for 1981-2010, 1971-2000, and 1961-1990 Normals.

Please note that as of June 10, 2021 UTC dates are available for all years 2004-present, and DBA is working on populating the remaining years (2003 to 1953).

If you haven't already, please take our survey and provide feedback about our website: https://eccc.sondage-survey.ca/f/LanguageSelection.aspx?s=442ca660-fcf1-47c0-95a9-59707d6fd709

Hourly Data Report for March 25, 2004

SHERBROOKE A
QUEBEC

45°26'00.000" N
71°41'00.000" W
241.40 m
7028124
71610
YSC

Download Data

Hourly Data (March 2004)
Hourly Data Report for March 25, 2004
TIME
LST
Temp Definition
°C
Dew Point Definition
°C
Rel Hum Definition
%
Precip. Amount Definition
mm

Wind Dir Definition
10's deg

Wind Spd Definition
km/h
Visibility Definition
km
Stn Press Definition
kPa
Hmdx Definition


Wind Chill Definition


Weather Definition


00:00 0.8 -6.0 60   9 7 15.0 100.06      
01:00 -0.1 -5.3 68   7 6 15.0 100.06   -2  
02:00 0.5 -4.7 68   9 4 15.0 100.07      
03:00 0.8 -3.8 71   17 4 15.0 100.08      
04:00 1.7 -3.8 67     0 15.0 100.09      
05:00 1.8 -4.2 64   16 6 15.0 100.10      
06:00 2.5 -3.4 65   13 7 15.0 100.07      
07:00 5.7 -3.1 53   15 15 15.0 100.07      
08:00 7.6 -3.3 46   17 15 24.1 100.05     Mostly Cloudy
09:00 7.6 -2.7 48   19 15 24.1 100.06     Mostly Cloudy
10:00 7.2 -1.5 54   16 17 24.1 100.01     Cloudy
11:00 8.4 -0.1 55   17 19 24.1 99.91     Mostly Cloudy
12:00 8.4 0.0 55   20 19 24.1 99.95     Cloudy
13:00 6.7 2.4 74   24 6 6.4 99.99     Rain,Fog
14:00 5.2 3.4 88   16 13 11.3 99.92     Rain
15:00 4.9 3.6 91   18 7 19.3 99.92     Rain
16:00 4.8 3.7 93   19 6 19.3 99.99     Cloudy
17:00 4.5 3.4 93   15 4 19.3 100.02     Cloudy
18:00 4.7 3.4 91     0 15.0 100.06      
19:00 4.5 3.1 91   18 6 15.0 100.10      
20:00 3.2 2.5 95   12 6 8.0 100.13      
21:00 2.7 2.2 97   11 4 2.1 100.12      
22:00 3.1 2.6 97   14 4 4.0 100.11      
23:00 2.4 2.0 97     0 1.3 100.11      

Notes on Data Quality.

Legend

  • E = Estimated
  • M = Missing
  • NA = Not Available*
  • [empty] = Indicates an unobserved value
Date modified: